User: anonymous   Login
Location: Arborea
(39.7744°N, 8.5819°E)
Time: 17:39:28
(UTC+00:00)
Language:

Cosmos 2228 - Orbit

View from above orbital plane
View from above orbital plane
View from above satellite
View from above satellite

Ground track
Ground track

The orbit data is extracted from the following two-line orbital elements,

1 22286U 92094A   22023.91974636  .00000439  00000-0  44545-4 0  9990
2 22286  82.5181 227.2820 0019764 298.3526  61.5698 14.88431727551520
Epoch (UTC): 23 January 2022 22:04:26
Eccentricity: 0.0019764
inclination: 82.5181°
perigee height: 589 km
apogee height: 616 km
right ascension of ascending node: 227.2820°
argument of perigee: 298.3526°
revolutions per day: 14.88431727
mean anomaly at epoch: 61.5698°
orbit number at epoch: 55152

The dashed part of the orbit path shows where the satellite is in the earth's shadow,  

DLR